Regional Weather Roundup
Issued by NWS

Home | Current Version | Previous Version | Text Only | Print | Product List | Glossary Off
Versions: 1 2 3 4 5 6 7 8 9 10 11 12 13 14 15 16 17 18 19 20 21 22 23 24 25 26 27 28 29 30 31 32 33 34 35 36 37 38 39 40 41 42 43 44 45 46 47 48 49 50

675
ASUS43 KLOT 272103
RWRIL

ILLINOIS REGIONAL WEATHER ROUNDUP
NATIONAL WEATHER SERVICE CHICAGO/ROMEOVILLE IL
400 PM CDT THU APR 27 2017

NOTE: "FAIR" INDICATES FEW OR NO CLOUDS BELOW 12,000 FEET WITH NO
SIGNIFICANT WEATHER AND/OR OBSTRUCTIONS TO VISIBILITY.

* THESE STATIONS ARE NOT UNDER NWS QUALITY CONTROL. THEY ALSO MAY NOT
  REPORT WEATHER SUCH AS PRECIPITATION OR FOG.

ILZ001-002-007-009-015-016-024-272200-
NORTHWEST ILLINOIS

CITY           SKY/WX    TMP DP  RH WIND       PRES   REMARKS
MOLINE         CLOUDY    45  35  68 SW13G23   29.73R
STERLING*      CLOUDY    43  36  76 W20G28    29.71R
SAVANNA*       CLOUDY    43  33  69 W12G20    29.70S
$$

ILZ003-004-008-010-011-017-018-272200-
NORTH CENTRAL ILLINOIS

CITY           SKY/WX    TMP DP  RH WIND       PRES   REMARKS
ROCKFORD       CLOUDY    43  35  73 W17G25    29.70R
FREEPORT*      CLOUDY    42  35  76 W20       29.69R
ROCHELLE*      CLOUDY    42  37  82 W20G26    29.71R
DE KALB*       CLOUDY    42  37  82 SW21      29.70R
PERU*          CLOUDY    45  37  75 W16G28    29.73R
$$

ILZ005-006-012>014-019>023-272200-
NORTHEAST ILLINOIS

CITY           SKY/WX    TMP DP  RH WIND       PRES   REMARKS
CHICAGO-OHARE  CLOUDY    46  37  71 W17G30    29.68R
CHICAGO-MIDWAY CLOUDY    47  39  74 SW12G21   29.70R
AURORA         CLOUDY    46  38  73 SW20G26   29.71R
LANSING*       CLOUDY    47  41  80 SW13G22   29.71S
WAUKEGAN       CLOUDY    44  37  76 SW16G25   29.66R
DUPAGE AIRPORT CLOUDY    45  39  79 SW17G26   29.69R
WHEELING       CLOUDY    45  38  76 W15G24    29.69R
MORRIS*        CLOUDY    47  38  73 W17       29.71S
NORTHERLY ISL    N/A     46  37  71 SW18        N/A
$$

LMZ740>746-272200-
SOUTHERN LAKE MICHIGAN

STATION/POSITION SKY/WX   TEMP    WIND        PRES    VSBY  WAVE
                          AIR SEA DIR/SP/G                  HT/PER
                          (F)     (DEG/KT/KT) (MB)    (MI)  (FT/S)
SOUTHERN BUOY              43 41  260/ 12/ 16 1003.8          4/ 5
HARRISON CRIB              46     250/ 18/ 20   N/A
BURNHAM HARBOR             46     240/ 15/ 19   N/A
CALUMET HARBOR             47     220/  8/ 15 1005.2R
BURNS HARBOR               48     220/ 15/ 21 1006.4R
MICHIGAN CITY              47     200/ 20/ 25   N/A
MICHIGAN CITY 6N           46 47                N/A           4/ 4
ST. JOSEPH                 45 48  250/ 16/ 19 1006.4R         4/ 5
$$

ILZ025>027-034>036-040-047-049-050-058-095>099-272200-
WEST-CENTRAL ILLINOIS

CITY           SKY/WX    TMP DP  RH WIND       PRES   REMARKS
QUINCY         PTSUNNY   55  41  59 SW14G21   29.74S
GALESBURG*     CLOUDY    47  39  73 W14       29.72F
MACOMB*        CLOUDY    51  42  71 W12       29.75F
JACKSONVILLE*  CLOUDY    54  42  64 SW13      29.75F
PITTSFIELD*    PTSUNNY   55  42  62 W10       29.77R
$$

ILZ028>032-037-038-041>044-048-051>054-059>061-272200-
CENTRAL ILLINOIS

CITY           SKY/WX    TMP DP  RH WIND       PRES   REMARKS
PONTIAC        CLOUDY    49  43  81 SW17      29.74S
BLOOMINGTON    CLOUDY    48  40  73 W16G26    29.75R
DECATUR        CLOUDY    50  41  71 W14       29.77S
PEORIA         CLOUDY    50  39  66 W16       29.75R
SPRINGFIELD    CLOUDY    53  42  66 W14       29.77S
TAYLORVILLE    CLOUDY    51  43  73 SW12G17   29.77F
$$

ILZ033-039-045-046-055>057-062-063-272200-
EAST-CENTRAL ILLINOIS

CITY           SKY/WX    TMP DP  RH WIND       PRES   REMARKS
CHAMPAIGN      CLOUDY    48  42  80 W17       29.77R
RANTOUL*       CLOUDY    48  44  85 W17G23    29.76S
MATTOON        CLOUDY    51  44  77 W9G18     29.77S
PARIS*         CLOUDY    52  46  80 W13G20    29.79S
$$

ILZ079-100>102-272200-
SOUTHWEST ILLINOIS

CITY           SKY/WX    TMP DP  RH WIND       PRES   REMARKS
ALTON          MOSUNNY   55  45  67 SW9G18    29.79S
BELLEVILLE     MOSUNNY   59  44  57 SW8       29.78S
CAHOKIA*       MOSUNNY   60  42  51 VRB6      29.78S
$$

ILZ064>066-069>071-074>076-080>082-084>086-088>090-092>094-272200-
SOUTH-CENTRAL ILLINOIS

CITY           SKY/WX    TMP DP  RH WIND       PRES   REMARKS
CARBONDALE     MOSUNNY   58  47  66 SW5       29.82R
CAIRO*         PTSUNNY   59  49  67 SW9       29.84S
EFFINGHAM*     CLOUDY    55  45  70 SW10      29.80S
MARION         PTSUNNY   59  48  67 S6        29.83R
MT. VERNON     CLOUDY    57  46  66 SW10      29.81S
CENTRALIA*     CLOUDY    56  47  70 SW13      29.80R
SALEM*         CLOUDY    56  45  67 W8        29.80S
$$

ILZ067-068-072-073-078-083-087-091-272200-
SOUTHEAST ILLINOIS

CITY           SKY/WX    TMP DP  RH WIND       PRES   REMARKS
LAWRENCEVILLE  CLOUDY    55  46  71 SW16      29.81R
FLORA*         CLOUDY    58  47  65 W8        29.81S
FAIRFIELD*     CLOUDY    55  45  68 SW7       29.81S
HARRISBURG*    CLOUDY    57  47  71 SW9G16    29.84R
ROBINSON*      CLOUDY    53  47  79 W12       29.81S
CARMI*         CLOUDY    58  48  70 W10       29.81F
$$

ABBREVIATIONS USED IN REMARKS
   TC - TEMPERATURE IN CELSIUS
  WCI - WIND CHILL INDEX
   HX - HEAT INDEX
  VSB - VISIBILITY
$$





USA.gov is the U.S. government's official web portal to all federal, state and local government web resources and services.